| time (UTC) | temp C | wind direction | speed KPH | gust KPH | rain 1hr cm | rain 24hr cm | rain mn cm | humidity % | barometer mb |
| 20260504204637 | 27 | 275 | 14.5 | 16.1 | 0.00 | 0.00 | 0.00 | 29 | 998.9 |
| 20260504204135 | 27 | 55 | 9.7 | 12.9 | 0.00 | 0.00 | 0.00 | 29 | 998.8 |
| 20260504203634 | 27 | 350 | 9.7 | 12.9 | 0.00 | 0.00 | 0.00 | 29 | 998.7 |
| 20260504203131 | 28 | 284 | 16.1 | 22.5 | 0.00 | 0.00 | 0.00 | 29 | 998.7 |
| 20260504202631 | 28 | 328 | 8.0 | 11.3 | 0.00 | 0.00 | 0.00 | 29 | 999.0 |
| 20260504202128 | 27 | 289 | 11.3 | 16.1 | 0.00 | 0.00 | 0.00 | 30 | 999.2 |
| 20260504201625 | 27 | 296 | 6.4 | 6.4 | 0.00 | 0.00 | 0.00 | 30 | 999.0 |
| 20260504201123 | 27 | 259 | 9.7 | 14.5 | 0.00 | 0.00 | 0.00 | 30 | 999.2 |
| 20260504200620 | 28 | 205 | 8.0 | 14.5 | 0.00 | 0.00 | 0.00 | 28 | 999.5 |
| 20260504200116 | 28 | 231 | 11.3 | 14.5 | 0.00 | 0.00 | 0.00 | 29 | 999.5 |
| 20260504195612 | 27 | 250 | 9.7 | 12.9 | 0.00 | 0.00 | 0.00 | 29 | 999.6 |
| 20260504195108 | 27 | 320 | 11.3 | 14.5 | 0.00 | 0.00 | 0.00 | 29 | 999.4 |
| 20260504194605 | 27 | 310 | 12.9 | 16.1 | 0.00 | 0.00 | 0.00 | 30 | 999.6 |
| 20260504194101 | 27 | 249 | 22.5 | 27.4 | 0.00 | 0.00 | 0.00 | 30 | 999.6 |
| 20260504193558 | 27 | 276 | 9.7 | 11.3 | 0.00 | 0.00 | 0.00 | 30 | 999.7 |
| 20260504193056 | 26 | 314 | 6.4 | 11.3 | 0.00 | 0.00 | 0.00 | 31 | 999.7 |
| 20260504192554 | 27 | 308 | 8.0 | 14.5 | 0.00 | 0.00 | 0.00 | 30 | 999.8 |
| 20260504192052 | 26 | 209 | 9.7 | 14.5 | 0.00 | 0.00 | 0.00 | 30 | 999.8 |
| 20260504191550 | 26 | 246 | 16.1 | 20.9 | 0.00 | 0.00 | 0.00 | 31 | 999.9 |
| 20260504191046 | 27 | 297 | 19.3 | 22.5 | 0.00 | 0.00 | 0.00 | 30 | 999.7 |
| 20260504190542 | 27 | 284 | 9.7 | 11.3 | 0.00 | 0.00 | 0.00 | 30 | 999.8 |
| 20260504190038 | 27 | 251 | 8.0 | 11.3 | 0.00 | 0.00 | 0.00 | 30 | 999.8 |
| 20260504185536 | 27 | 318 | 17.7 | 27.4 | 0.00 | 0.00 | 0.00 | 30 | 999.7 |
| 20260504185032 | 27 | 278 | 8.0 | 11.3 | 0.00 | 0.00 | 0.00 | 30 | 999.9 |
| 20260504184527 | 27 | 276 | 9.7 | 17.7 | 0.00 | 0.00 | 0.00 | 30 | 1000.0 |
| 20260504184023 | 27 | 156 | 9.7 | 12.9 | 0.00 | 0.00 | 0.00 | 29 | 1000.0 |
| 20260504183520 | 27 | 324 | 8.0 | 11.3 | 0.00 | 0.00 | 0.00 | 29 | 999.9 |
| 20260504183019 | 27 | 301 | 19.3 | 27.4 | 0.00 | 0.00 | 0.00 | 29 | 999.9 |
| 20260504182515 | 27 | 315 | 12.9 | 22.5 | 0.00 | 0.00 | 0.00 | 29 | 1000.1 |
| 20260504182012 | 27 | 261 | 9.7 | 16.1 | 0.00 | 0.00 | 0.00 | 29 | 1000.1 |
| 20260504181509 | 27 | 335 | 9.7 | 11.3 | 0.00 | 0.00 | 0.00 | 29 | 1000.1 |
| 20260504181008 | 26 | 261 | 16.1 | 24.1 | 0.00 | 0.00 | 0.00 | 29 | 1000.1 |
| 20260504180506 | 27 | 64 | 11.3 | 14.5 | 0.00 | 0.00 | 0.00 | 29 | 1000.1 |
| 20260504180004 | 26 | 246 | 8.0 | 14.5 | 0.00 | 0.00 | 0.00 | 29 | 1000.0 |
| 20260504175501 | 26 | 304 | 19.3 | 25.7 | 0.00 | 0.00 | 0.00 | 28 | 1000.2 |
| 20260504174958 | 26 | 54 | 8.0 | 12.9 | 0.00 | 0.00 | 0.00 | 30 | 1000.2 |
| 20260504174456 | 26 | 327 | 19.3 | 27.4 | 0.00 | 0.00 | 0.00 | 31 | 999.9 |
| 20260504173953 | 26 | 211 | 17.7 | 22.5 | 0.00 | 0.00 | 0.00 | 29 | 1000.2 |
| 20260504173449 | 26 | 291 | 17.7 | 24.1 | 0.00 | 0.00 | 0.00 | 30 | 1000.3 |
| 20260504172947 | 26 | 270 | 8.0 | 11.3 | 0.00 | 0.00 | 0.00 | 30 | 1000.3 |
| 20260504172443 | 26 | 251 | 24.1 | 27.4 | 0.00 | 0.00 | 0.00 | 31 | 1000.6 |
| 20260504171940 | 26 | 295 | 11.3 | 14.5 | 0.00 | 0.00 | 0.00 | 32 | 1000.5 |
| 20260504171437 | 26 | 264 | 12.9 | 14.5 | 0.00 | 0.00 | 0.00 | 33 | 1000.5 |
| 20260504170934 | 25 | 259 | 11.3 | 16.1 | 0.00 | 0.00 | 0.00 | 33 | 1000.5 |
| 20260504170430 | 25 | 239 | 14.5 | 20.9 | 0.00 | 0.00 | 0.00 | 33 | 1000.5 |
| 20260504160349 | 23 | 204 | 14.5 | 20.9 | 0.00 | 0.00 | 0.00 | 33 | 1001.4 |
| 20260504150814 | 21 | 282 | 8.0 | 11.3 | 0.00 | 0.00 | 0.00 | 37 | 1002.1 |
| 20260504150310 | 21 | 223 | 8.0 | 14.5 | 0.00 | 0.00 | 0.00 | 37 | 1002.5 |
| 20260504141240 | 18 | 210 | 8.0 | 11.3 | 0.00 | 0.00 | 0.00 | 46 | 1003.0 |
| 20260504140737 | 17 | 244 | 9.7 | 11.3 | 0.00 | 0.00 | 0.00 | 48 | 1002.8 |
| 20260504140232 | 17 | 236 | 6.4 | 6.4 | 0.00 | 0.00 | 0.00 | 49 | 1003.0 |
| 20260504130701 | 13 | 219 | 8.0 | 9.7 | 0.00 | 0.00 | 0.00 | 60 | 1003.4 |
| 20260504130157 | 13 | 241 | 6.4 | 9.7 | 0.00 | 0.00 | 0.00 | 59 | 1003.7 |
| 20260504120121 | 10 | 219 | 8.0 | 9.7 | 0.00 | 0.00 | 0.00 | 65 | 1003.7 |
| 20260504110549 | 8 | 285 | 1.6 | 1.6 | 0.00 | 0.00 | 0.00 | 65 | 1004.2 |
| 20260504100510 | 6 | 329 | 0.0 | 0.0 | 0.00 | 0.00 | 0.00 | 80 | 1004.7 |
| 20260504081903 | 9 | 263 | 3.2 | 4.8 | 0.00 | 0.00 | 0.00 | 63 | 1005.3 |
| 20260504081400 | 8 | 307 | 1.6 | 1.6 | 0.00 | 0.00 | 0.00 | 68 | 1005.3 |
| 20260504080856 | 8 | 288 | 1.6 | 3.2 | 0.00 | 0.00 | 0.00 | 65 | 1005.4 |
| 20260504080353 | 8 | 314 | 0.0 | 1.6 | 0.00 | 0.00 | 0.00 | 65 | 1005.4 |
| 20260504070320 | 8 | 328 | 0.0 | 1.6 | 0.00 | 0.00 | 0.00 | 70 | 1005.9 |
| 20260504060241 | 11 | 309 | 0.0 | 0.0 | 0.00 | 0.00 | 0.00 | 58 | 1006.8 |
| 20260504050709 | 12 | 323 | 0.0 | 1.6 | 0.00 | 0.00 | 0.00 | 57 | 1007.3 |
| 20260504050206 | 11 | 308 | 0.0 | 1.6 | 0.00 | 0.00 | 0.00 | 56 | 1007.3 |
| 20260504045703 | 12 | 329 | 0.0 | 0.0 | 0.00 | 0.03 | 0.03 | 57 | 1007.1 |
| 20260504045203 | 12 | 324 | 0.0 | 0.0 | 0.00 | 0.03 | 0.03 | 56 | 1007.1 |
| 20260504044702 | 13 | 2 | 0.0 | 0.0 | 0.00 | 0.03 | 0.03 | 54 | 1007.1 |
| 20260504044158 | 13 | 319 | 0.0 | 0.0 | 0.00 | 0.03 | 0.03 | 50 | 1007.2 |
| 20260504043655 | 13 | 325 | 0.0 | 0.0 | 0.00 | 0.03 | 0.03 | 50 | 1007.3 |
| 20260504043152 | 13 | 269 | 3.2 | 3.2 | 0.00 | 0.03 | 0.03 | 50 | 1007.3 |
| 20260504042650 | 13 | 298 | 1.6 | 1.6 | 0.00 | 0.03 | 0.03 | 50 | 1007.2 |
| 20260504042146 | 13 | 257 | 1.6 | 3.2 | 0.00 | 0.03 | 0.03 | 48 | 1007.4 |
| 20260504041642 | 13 | 272 | 3.2 | 3.2 | 0.00 | 0.03 | 0.03 | 52 | 1007.3 |
| 20260504041138 | 13 | 271 | 1.6 | 3.2 | 0.00 | 0.03 | 0.03 | 53 | 1007.1 |
| 20260504040636 | 13 | 307 | 0.0 | 1.6 | 0.00 | 0.03 | 0.03 | 52 | 1007.2 |
| 20260504040132 | 13 | 326 | 1.6 | 1.6 | 0.00 | 0.03 | 0.03 | 53 | 1007.2 |
| 20260504035629 | 13 | 317 | 0.0 | 0.0 | 0.00 | 0.03 | 0.03 | 53 | 1007.3 |
| 20260504035125 | 14 | 346 | 0.0 | 0.0 | 0.00 | 0.03 | 0.03 | 52 | 1007.3 |
| 20260504034624 | 15 | 320 | 0.0 | 0.0 | 0.00 | 0.03 | 0.03 | 50 | 1007.2 |
| 20260504034120 | 15 | 330 | 0.0 | 0.0 | 0.00 | 0.03 | 0.03 | 47 | 1007.4 |
| 20260504033618 | 16 | 319 | 0.0 | 0.0 | 0.00 | 0.03 | 0.03 | 44 | 1007.3 |
| 20260504033115 | 16 | 313 | 0.0 | 1.6 | 0.00 | 0.03 | 0.03 | 44 | 1007.4 |
| 20260504032612 | 16 | 333 | 1.6 | 1.6 | 0.00 | 0.03 | 0.03 | 46 | 1007.3 |
| 20260504032109 | 16 | 316 | 0.0 | 0.0 | 0.00 | 0.03 | 0.03 | 44 | 1007.2 |
| 20260504031606 | 16 | 313 | 3.2 | 3.2 | 0.00 | 0.03 | 0.03 | 42 | 1007.4 |
| 20260504031102 | 16 | 325 | 1.6 | 1.6 | 0.00 | 0.03 | 0.03 | 44 | 1007.4 |
| 20260504030559 | 17 | 316 | 0.0 | 0.0 | 0.00 | 0.03 | 0.03 | 41 | 1007.4 |
| 20260504030055 | 17 | 313 | 1.6 | 3.2 | 0.00 | 0.03 | 0.03 | 40 | 1007.4 |
| 20260504025553 | 17 | 315 | 1.6 | 1.6 | 0.00 | 0.03 | 0.03 | 38 | 1007.3 |
| 20260504025049 | 18 | 293 | 1.6 | 1.6 | 0.00 | 0.03 | 0.03 | 37 | 1007.4 |
| 20260504024547 | 18 | 295 | 1.6 | 1.6 | 0.00 | 0.03 | 0.03 | 37 | 1007.2 |
| 20260504024043 | 18 | 316 | 1.6 | 3.2 | 0.00 | 0.03 | 0.03 | 37 | 1007.2 |
| 20260504023540 | 18 | 297 | 4.8 | 4.8 | 0.00 | 0.03 | 0.03 | 37 | 1007.2 |
| 20260504023036 | 18 | 277 | 4.8 | 6.4 | 0.00 | 0.03 | 0.03 | 37 | 1007.1 |
| 20260504022532 | 18 | 282 | 4.8 | 4.8 | 0.00 | 0.03 | 0.03 | 37 | 1007.1 |
| 20260504022028 | 18 | 322 | 4.8 | 4.8 | 0.00 | 0.03 | 0.03 | 37 | 1007.1 |
| 20260504021526 | 18 | 304 | 4.8 | 6.4 | 0.00 | 0.03 | 0.03 | 36 | 1007.1 |
| 20260504021023 | 18 | 285 | 3.2 | 3.2 | 0.00 | 0.03 | 0.03 | 36 | 1007.0 |
| 20260504020520 | 18 | 270 | 6.4 | 9.7 | 0.00 | 0.03 | 0.03 | 36 | 1007.0 |
| 20260504020016 | 19 | 281 | 3.2 | 4.8 | 0.00 | 0.03 | 0.03 | 35 | 1006.9 |
| 20260504015513 | 19 | 311 | 1.6 | 3.2 | 0.00 | 0.03 | 0.03 | 35 | 1006.8 |
| 20260504015009 | 20 | 263 | 6.4 | 6.4 | 0.00 | 0.03 | 0.03 | 35 | 1006.6 |
| 20260504014505 | 20 | 302 | 3.2 | 4.8 | 0.00 | 0.03 | 0.03 | 34 | 1006.6 |
| 20260504014002 | 20 | 294 | 4.8 | 4.8 | 0.00 | 0.03 | 0.03 | 35 | 1006.6 |
| 20260504013500 | 20 | 259 | 1.6 | 3.2 | 0.00 | 0.03 | 0.03 | 34 | 1006.5 |
| 20260504012955 | 20 | 278 | 3.2 | 4.8 | 0.00 | 0.03 | 0.03 | 34 | 1006.6 |
| 20260504012454 | 20 | 311 | 3.2 | 4.8 | 0.00 | 0.03 | 0.03 | 33 | 1006.3 |
| 20260504011952 | 20 | 296 | 3.2 | 6.4 | 0.00 | 0.03 | 0.03 | 33 | 1006.4 |
| 20260504011448 | 20 | 298 | 6.4 | 9.7 | 0.00 | 0.03 | 0.03 | 33 | 1006.4 |
| 20260504010944 | 21 | 305 | 6.4 | 6.4 | 0.00 | 0.03 | 0.03 | 33 | 1006.4 |
| 20260504010440 | 21 | 309 | 3.2 | 3.2 | 0.00 | 0.03 | 0.03 | 32 | 1006.2 |
| 20260504005936 | 21 | 284 | 3.2 | 4.8 | 0.00 | 0.03 | 0.03 | 31 | 1006.0 |
| 20260504005433 | 21 | 277 | 6.4 | 6.4 | 0.00 | 0.03 | 0.03 | 31 | 1006.1 |
| 20260504004930 | 22 | 274 | 6.4 | 6.4 | 0.00 | 0.03 | 0.03 | 30 | 1006.2 |
| 20260504004428 | 22 | 307 | 4.8 | 6.4 | 0.00 | 0.03 | 0.03 | 30 | 1006.1 |
| 20260504003925 | 22 | 285 | 4.8 | 6.4 | 0.00 | 0.03 | 0.03 | 29 | 1006.2 |
| 20260504003421 | 22 | 294 | 4.8 | 6.4 | 0.00 | 0.03 | 0.03 | 29 | 1006.0 |
| 20260504002918 | 22 | 273 | 4.8 | 4.8 | 0.00 | 0.03 | 0.03 | 29 | 1006.1 |
| 20260504002415 | 23 | 288 | 3.2 | 3.2 | 0.00 | 0.03 | 0.03 | 29 | 1006.0 |
| 20260504001913 | 23 | 283 | 4.8 | 6.4 | 0.00 | 0.03 | 0.03 | 28 | 1006.1 |
| 20260504001410 | 23 | 340 | 9.7 | 12.9 | 0.00 | 0.03 | 0.03 | 28 | 1006.0 |
| 20260504000906 | 23 | 297 | 6.4 | 9.7 | 0.00 | 0.03 | 0.03 | 28 | 1005.9 |
| 20260504000403 | 23 | 279 | 9.7 | 14.5 | 0.00 | 0.03 | 0.03 | 28 | 1006.0 |
| 20260503235901 | 23 | 321 | 8.0 | 9.7 | 0.00 | 0.03 | 0.03 | 28 | 1005.7 |
| 20260503235359 | 23 | 276 | 9.7 | 11.3 | 0.00 | 0.03 | 0.03 | 28 | 1005.9 |
| 20260503234856 | 23 | 279 | 8.0 | 12.9 | 0.00 | 0.03 | 0.03 | 28 | 1005.9 |
| 20260503234353 | 23 | 285 | 6.4 | 6.4 | 0.00 | 0.03 | 0.03 | 28 | 1005.8 |
| 20260503233851 | 23 | 268 | 6.4 | 12.9 | 0.00 | 0.03 | 0.03 | 27 | 1005.7 |
| 20260503233347 | 24 | 308 | 11.3 | 14.5 | 0.00 | 0.03 | 0.03 | 27 | 1005.9 |
| 20260503232843 | 24 | 340 | 9.7 | 14.5 | 0.00 | 0.03 | 0.03 | 28 | 1005.7 |
| 20260503232341 | 23 | 277 | 20.9 | 33.8 | 0.00 | 0.03 | 0.03 | 27 | 1005.9 |
| 20260503231839 | 24 | 285 | 6.4 | 6.4 | 0.00 | 0.03 | 0.03 | 28 | 1005.8 |
| 20260503231336 | 24 | 325 | 8.0 | 11.3 | 0.00 | 0.03 | 0.03 | 28 | 1005.9 |
| 20260503230832 | 24 | 269 | 6.4 | 9.7 | 0.00 | 0.03 | 0.03 | 27 | 1005.8 |
| 20260503230329 | 24 | 297 | 12.9 | 14.5 | 0.00 | 0.03 | 0.03 | 27 | 1005.8 |
| 20260503225826 | 24 | 283 | 9.7 | 14.5 | 0.00 | 0.03 | 0.03 | 28 | 1005.9 |
| 20260503225322 | 24 | 288 | 11.3 | 14.5 | 0.00 | 0.03 | 0.03 | 28 | 1005.8 |
| 20260503224818 | 25 | 270 | 11.3 | 12.9 | 0.00 | 0.03 | 0.03 | 28 | 1005.9 |
| 20260503224316 | 25 | 268 | 9.7 | 12.9 | 0.00 | 0.03 | 0.03 | 27 | 1005.9 |
| 20260503223814 | 25 | 273 | 6.4 | 9.7 | 0.00 | 0.03 | 0.03 | 28 | 1005.8 |
| 20260503223311 | 24 | 335 | 8.0 | 11.3 | 0.00 | 0.03 | 0.03 | 28 | 1005.7 |
| 20260503222806 | 24 | 285 | 9.7 | 14.5 | 0.00 | 0.03 | 0.03 | 28 | 1005.7 |
| 20260503222305 | 24 | 348 | 6.4 | 9.7 | 0.00 | 0.03 | 0.03 | 28 | 1005.8 |
| 20260503221803 | 24 | 280 | 8.0 | 11.3 | 0.00 | 0.03 | 0.03 | 26 | 1006.0 |
| 20260503221301 | 24 | 109 | 6.4 | 12.9 | 0.00 | 0.03 | 0.03 | 27 | 1005.9 |
| 20260503220757 | 24 | 314 | 17.7 | 20.9 | 0.00 | 0.03 | 0.03 | 27 | 1005.9 |
| 20260503220254 | 24 | 248 | 6.4 | 6.4 | 0.00 | 0.03 | 0.03 | 26 | 1005.9 |
| 20260503215751 | 24 | 308 | 12.9 | 16.1 | 0.00 | 0.03 | 0.03 | 27 | 1005.7 |
| 20260503215248 | 24 | 250 | 9.7 | 12.9 | 0.00 | 0.03 | 0.03 | 29 | 1005.7 |
| 20260503214746 | 24 | 305 | 12.9 | 17.7 | 0.00 | 0.03 | 0.03 | 29 | 1005.6 |
| 20260503214242 | 25 | 240 | 11.3 | 14.5 | 0.00 | 0.03 | 0.03 | 29 | 1005.6 |
| 20260503213740 | 24 | 280 | 14.5 | 17.7 | 0.00 | 0.03 | 0.03 | 31 | 1005.8 |
| 20260503213238 | 25 | 244 | 8.0 | 11.3 | 0.00 | 0.03 | 0.03 | 31 | 1005.9 |
| 20260503212734 | 24 | 268 | 9.7 | 16.1 | 0.00 | 0.03 | 0.03 | 32 | 1005.8 |
| 20260503212232 | 24 | 269 | 9.7 | 16.1 | 0.00 | 0.03 | 0.03 | 32 | 1005.7 |
| 20260503211729 | 23 | 290 | 8.0 | 12.9 | 0.00 | 0.03 | 0.03 | 32 | 1006.0 |
| 20260503211225 | 23 | 290 | 8.0 | 11.3 | 0.00 | 0.03 | 0.03 | 33 | 1006.0 |
| 20260503210721 | 23 | 318 | 9.7 | 11.3 | 0.00 | 0.03 | 0.03 | 34 | 1006.2 |
| 20260503210219 | 23 | 63 | 11.3 | 14.5 | 0.00 | 0.03 | 0.03 | 33 | 1006.3 |
| 20260503205714 | 23 | 250 | 17.7 | 20.9 | 0.00 | 0.03 | 0.03 | 33 | 1006.4 |
| 20260503205210 | 23 | 248 | 8.0 | 9.7 | 0.00 | 0.03 | 0.03 | 33 | 1006.4 |